Palm Springs, CA

1:02 AM PDT on May 28, 2017 (GMT -0700)
Palm Springs International

Weather History for KPSP - June, 2014

Change the Weather History Date:

Thursday, June 12, 2014

  Actual Average Record
Temperature  
Mean Temperature 91 °F 86 °F  
Max Temperature 107 °F 101 °F 117 °F (1940)
Min Temperature 74 °F 70 °F 47 °F (1976)
Degree Days  
Heating Degree Days 0 0  
Month to date heating degree days 0 0  
Since 1 June heating degree days 0 0  
Since 1 July heating degree days 431 874  
Cooling Degree Days 26 21  
Month to date cooling degree days 300 231  
Year to date cooling degree days 1410 990  
Since 1 June cooling degree days 300 231  
Growing Degree Days 40 (Base 50)    
Moisture  
Dew Point 37 °F    
Average Humidity 24    
Maximum Humidity 43    
Minimum Humidity 5    
Precipitation  
Precipitation 0.00 in 0.00 in 0.00 in (2017)
Month to date precipitation 0.00 0.04  
Year to date precipitation 0.75 2.92  
Since 1 July precipitation 2.01  
Snow  
Snow 0.00 in - - ()
Month to date snowfall 0.0  
Year to date snowfall 0.0  
Snow Depth 0.00 in    
Sea Level Pressure  
Sea Level Pressure 29.76 in    
Wind  
Wind Speed 4 mph (WNW)    
Max Wind Speed 25 mph    
Max Gust Speed 32 mph    
Visibility 10 miles    
Events      
T = Trace of Precipitation, MM = Missing Value Source: NWS Daily Summary

Daily Weather History Graph

Daily Weather History Graph

Search for Another Location

Airport or City:

Trip Planner

Search our weather history database for the weather conditions in past years. The results will help you decide how hot, cold, wet, or windy it might be!

Date:

Astronomy

Jun. 12, 2014 Rise Set
Actual Time 5:34 AM PDT 7:57 PM PDT
Civil Twilight 5:05 AM PDT 8:26 PM PDT
Nautical Twilight 4:29 AM PDT 9:02 PM PDT
Astronomical Twilight 3:50 AM PDT 9:41 PM PDT
Moon 7:37 PM PDT (6/12) 5:15 AM PDT (6/12)
Length of Visible Light 15h 20m
Length of Day
14h 22m
Full, 100% of the Moon is Illuminated
Jun 12
Full
Jun 12
Full
Jun 19
Last Quarter
Jun 27
New
Jul 5
First Quarter

Hourly Weather History & Observations

Time (PDT) Temp. Dew Point Humidity Pressure Visibility Wind Dir Wind Speed Gust Speed Precip Events Conditions
12:53 AM 81.0 °F 44.1 °F 27% 29.74 in 10.0 mi Calm Calm - N/A   Clear
1:53 AM 81.0 °F 44.1 °F 27% 29.74 in 10.0 mi Calm Calm - N/A   Clear
2:53 AM 81.0 °F 44.1 °F 27% 29.75 in 10.0 mi Calm Calm - N/A   Clear
3:53 AM 75.9 °F 48.0 °F 37% 29.75 in 10.0 mi South 3.5 mph - N/A   Clear
4:53 AM 78.1 °F 48.0 °F 35% 29.76 in 10.0 mi Calm Calm - N/A   Clear
5:53 AM 75.0 °F 51.1 °F 43% 29.78 in 10.0 mi SSW 3.5 mph - N/A   Clear
7:53 AM 82.9 °F 42.1 °F 24% 29.80 in 10.0 mi South 5.8 mph - N/A   Clear
8:53 AM 88.0 °F 37.9 °F 17% 29.81 in 10.0 mi Calm Calm - N/A   Clear
9:53 AM 93.0 °F 34.0 °F 12% 29.81 in 10.0 mi Calm Calm - N/A   Clear
10:53 AM 97.0 °F 23.0 °F 7% 29.81 in 10.0 mi Calm Calm - N/A   Clear
11:53 AM 100.0 °F 21.0 °F 6% 29.80 in 10.0 mi Variable 3.5 mph - N/A   Clear
12:53 PM 102.9 °F 18.0 °F 5% 29.78 in 10.0 mi North - - N/A   Clear
2:53 PM 105.1 °F 19.9 °F 5% 29.73 in 10.0 mi NW 10.4 mph 16.1 mph N/A   Clear
3:53 PM 105.1 °F 26.1 °F 6% 29.72 in 10.0 mi NW 18.4 mph - N/A   Clear
4:53 PM 105.1 °F 34.0 °F 9% 29.71 in 10.0 mi NW 17.3 mph 26.5 mph N/A   Clear
5:53 PM 100.9 °F 39.9 °F 12% 29.70 in 10.0 mi NW 23.0 mph 28.8 mph N/A   Clear
6:53 PM 98.1 °F 41.0 °F 14% 29.71 in 10.0 mi NW 21.9 mph 28.8 mph N/A   Clear
7:53 PM 93.0 °F 41.0 °F 16% 29.73 in 10.0 mi NW 26.5 mph 36.8 mph N/A   Clear
8:53 PM 91.0 °F 39.9 °F 17% 29.73 in 10.0 mi NNW 20.7 mph 32.2 mph N/A   Clear
9:53 PM 88.0 °F 39.0 °F 18% 29.75 in 10.0 mi NW 21.9 mph 28.8 mph N/A   Clear
10:53 PM 86.0 °F 35.1 °F 16% 29.76 in 10.0 mi NW 15.0 mph - N/A   Clear
11:53 PM 84.9 °F 34.0 °F 16% 29.76 in 10.0 mi NW 13.8 mph - N/A   Clear